www.pogodaiklimat.ru
ПОГОДА в Виго
Время
(UTC), дата
04 18.09
05 18.09
06 18.09
07 18.09
08 18.09
09 18.09
10 18.09
11 18.09
12 18.09
13 18.09
14 18.09
15 18.09
16 18.09
17 18.09
18 18.09
19 18.09
20 18.09
21 18.09
22 18.09
23 18.09
00 19.09
01 19.09
02 19.09
03 19.09
04 19.09
05 19.09
06 19.09
07 19.09
08 19.09
09 19.09
10 19.09
11 19.09
12 19.09
13 19.09
14 19.09
15 19.09
16 19.09
17 19.09
18 19.09
19 19.09
20 19.09
21 19.09
22 19.09
23 19.09
00 20.09
01 20.09
02 20.09
03 20.09
04 20.09
05 20.09
06 20.09
07 20.09
08 20.09
09 20.09
10 20.09
11 20.09
12 20.09
13 20.09
14 20.09
15 20.09
16 20.09
17 20.09
18 20.09
19 20.09
20 20.09
21 20.09
22 20.09
23 20.09
00 21.09
01 21.09
02 21.09
03 21.09
04 21.09
05 21.09
06 21.09
07 21.09
08 21.09
09 21.09
10 21.09
11 21.09
12 21.09
13 21.09
14 21.09
15 21.09
16 21.09
17 21.09
18 21.09
19 21.09
20 21.09
21 21.09
22 21.09
23 21.09
00 22.09
01 22.09
02 22.09
03 22.09
04 22.09
05 22.09
06 22.09
07 22.09
08 22.09
09 22.09
10 22.09
11 22.09
12 22.09
13 22.09
14 22.09
15 22.09
16 22.09
17 22.09
18 22.09
19 22.09
20 22.09
21 22.09
22 22.09
23 22.09
00 23.09
01 23.09
02 23.09
03 23.09
04 23.09
05 23.09
06 23.09
07 23.09
08 23.09
09 23.09
10 23.09
11 23.09
12 23.09
13 23.09
14 23.09
15 23.09
16 23.09
17 23.09
18 23.09
19 23.09
20 23.09
21 23.09
22 23.09
23 23.09
00 24.09
01 24.09
02 24.09
03 24.09
04 24.09
05 24.09
06 24.09
07 24.09
08 24.09
09 24.09
10 24.09
11 24.09
12 24.09
13 24.09
14 24.09
15 24.09
16 24.09
17 24.09
18 24.09
19 24.09
20 24.09
21 24.09
22 24.09
23 24.09
00 25.09
01 25.09
02 25.09
03 25.09
05 25.09
Ветер
(напр.,м/с)
Видим. Явления Облачность Т
(С)
Тd
(С)
f
(%)
Тe
(С)
Тes
(С)
Комфортность P
(гПа)
Po
(гПа)
Тmin
(С)
Tmax
(С)
R
(мм)
R24
(мм)
S
(см)
Ю 1 н/о осадки н/о +16.1 +16.1 100 +17 +17 1008.7 978.7
Ю 2 н/о осадки н/о +15.9 +15.9 100 +16 +16 1008.5 978.5
Ю 3 н/о н/о +15.7 +15.7 100 +15 +15 1008.3 978.2 +15.6 0.0 22.4
Ю 4 н/о в посл. час осадки н/о +15.6 +15.6 100 +15 +15 1009.0 978.9
ЮЗ 1 н/о осадки н/о +16.5 +16.5 100 +18 +18 1009.2 979.2
В 1 800 м туман 9/6 <50 м
[St Ac trans]
+16.9 +16.9 100 +18 +20 1009.8 979.8 0.0
ЮЗ 1 н/о н/о +18.6 +17.4 93 +21 +21 комфорт 1009.7 979.9
Ю 3 н/о н/о +22.0 +16.0 69 +26 +26 душно 1009.5 980.0
Ю 3 35 км 9/4 600 м
[Cu med, cong Ac und]
+21.8 +15.4 67 +25 +28 комфорт 1009.3 979.8
Ю 2 н/о н/о +23.5 +13.5 53 +26 +26 жарко 1008.3 979.0
В 2 н/о н/о +24.5 +14.8 55 +27 +27 жарко 1007.5 978.3
З 1 35 км 8/4 1000 м
[Sc diur, vesp Ac cuf Ci sp]
+25.3 +14.0 50 +28 +32 жарко 1007.1 978.0
ЮВ 1 н/о н/о +24.5 +13.2 49 +27 +27 жарко 1006.6 977.4
С 3 н/о н/о +22.5 +14.3 60 +26 +26 жарко 1007.0 977.6
СЗ 2 25 км ливневой дождь 9/8 600 м
[Sc As op]
+19.2 +19.2 100 +22 +22 комфорт 1007.8 978.2 +25.9 0.8
С 4 н/о в посл. час осадки н/о +18.4 +17.3 93 +19 +19 1007.6 977.9
С 4 н/о н/о +18.4 +16.6 89 +19 +19 1008.1 978.3
С 4 35 км н/о +18.5 +17.0 91 +19 +19 1008.3 978.5 0.0
С 2 н/о н/о +17.9 +16.3 90 +18 +18 1008.4 978.6
ЮЗ 1 н/о н/о +18.2 +17.0 93 +20 +20 1008.6 978.8
ЮЗ 3 35 км н/о +17.5 +17.3 99 +18 +18 1009.1 979.2
ЮЗ 4 н/о н/о +17.6 +16.7 94 +17 +17 1009.4 979.5
Ю 2 н/о н/о +17.3 +17.3 100 +18 +18 1009.9 980.0
Ю 3 5000 м 10/10 1000 м
[Frnb Ns]
+16.7 +16.7 100 +17 +17 1010.5 980.5 0.2
ЮЗ 1 н/о осадки н/о +16.2 +16.2 100 +17 +17 1011.0 980.9
Ю 2 н/о осадки н/о +16.0 +16.0 100 +16 +16 1011.5 981.4
Ю 2 8000 м слаб. дождь 10/10 200 м
[Sc]
+16.0 +16.0 100 +16 +16 1012.1 982.0 +16.0 10 10.6
Ю 3 н/о в посл. час осадки н/о +16.3 +16.3 100 +16 +16 1012.8 982.7
Ю 3 н/о н/о +16.4 +16.4 100 +16 +16 1013.2 983.1
Ю 3 4000 м туман на расстоянии 9/9 100 м
[Frnb Ac As]
+17.1 +17.1 100 +17 +18 1013.9 983.8 0.0
Ю 2 н/о н/о +19.1 +19.1 100 +22 +22 комфорт 1014.0 984.2
Ю 3 н/о н/о +20.0 +18.0 88 +23 +23 комфорт 1014.4 984.6
З 3 20 км 9/9 300 м
[Frnb Ac As]
+18.4 +18.4 100 +19 +20 1014.3 984.4 0.0
СЗ 2 н/о в посл. час осадки н/о +18.8 +17.6 93 +21 +21 комфорт 1014.3 984.4
СВ 2 н/о н/о +20.8 +18.7 88 +26 +26 душно 1013.5 983.8
С 4 30 км 6/5 1000 м
[Sc diur, vesp Ac und]
+20.6 +17.0 80 +24 +27 комфорт 1013.2 983.5 0.4
С 3 н/о н/о +21.0 +16.9 77 +25 +25 комфорт 1013.1 983.4
В 1 н/о н/о +20.2 +18.7 91 +25 +25 комфорт 1013.3 983.6
Ю 4 25 км 9/5 1500 м
[Sc diur, vesp Ac As]
+19.0 +15.6 81 +20 +20 1014.0 984.1 +21.4
Ю 3 н/о осадки н/о +17.3 +17.3 100 +17 +17 1014.6 984.5
Ю 3 н/о осадки н/о +17.2 +17.2 100 +17 +17 1015.0 984.9
Ю 3 7000 м туман на расстоянии 9/9 600 м
[Frnb Ac As]
+17.4 +17.4 100 +18 +18 1015.3 985.2 0.2
З 2 н/о н/о +17.4 +17.4 100 +18 +18 1015.4 985.3
штиль 0 н/о н/о +17.2 +17.2 100 +17 +17 1015.3 985.2
ЮЗ 1 20 км 9/9 600 м
[Sc Ac As]
+17.2 +17.2 100 +18 +18 1015.3 985.2
Ю 3 н/о осадки н/о +16.9 +16.9 100 +17 +17 1015.2 985.1
ЮЗ 1 н/о в посл. час осадки н/о +16.8 +16.8 100 +18 +18 1015.0 984.9
Ю 2 7000 м туман на расстоянии 9/9 50 м
[Frnb Ac As]
+16.7 +16.7 100 +17 +17 1014.8 984.7 0.2
ЮВ 1 н/о н/о +16.6 +16.6 100 +18 +18 1015.1 984.9
Ю 2 н/о осадки н/о +16.6 +16.6 100 +17 +17 1015.1 984.9
Ю 2 300 м туман ?/? +16.7 +16.7 100 +17 +17 1015.6 985.4 +16.5 0.4 1.2
Ю 2 н/о в посл. час осадки н/о +16.7 +16.7 100 +17 +17 1016.2 986.0
Ю 2 н/о осадки н/о +16.6 +16.6 100 +17 +17 1016.5 986.3
Ю 2 1500 м 10/10 50 м
[Frnb]
+17.0 +17.0 100 +17 +17 1017.0 986.8 0.4
Ю 1 н/о осадки н/о +17.9 +17.9 100 +19 +19 1017.5 987.4
ЮЗ 2 н/о н/о +19.0 +19.0 100 +21 +21 комфорт 1017.7 987.7
З 3 15 км 9/9 200 м
[Cu Sc]
+19.8 +18.9 95 +23 +24 комфорт 1017.5 987.6 0.1
З 5 н/о н/о +19.8 +19.2 96 +23 +23 комфорт 1017.7 987.8
З 7 н/о н/о +20.1 +18.3 89 +23 +23 комфорт 1017.4 987.5
ЮЗ 6 25 км 9/9 300 м
[Cu Sc]
+19.4 +17.8 90 +21 +22 комфорт 1017.8 987.9
ЮЗ 4 н/о н/о +18.8 +17.0 89 +20 +20 1018.4 988.4
ЮЗ 4 н/о н/о +18.2 +16.3 89 +18 +18 1018.8 988.7
З 3 25 км 8/8 300 м
[Cu Sc]
+18.0 +16.3 90 +18 +18 1019.1 989.0 +20.6
СЗ 3 н/о н/о +16.9 +16.9 100 +17 +17 1019.3 989.0
З 1 н/о н/о +16.0 +16.0 100 +17 +17 1020.2 989.8
З 1 20 км 8/8 600 м
[Frnb]
+15.9 +15.9 100 +16 +16 1020.5 990.1
ЮЗ 2 н/о н/о +14.9 +14.9 100 +14 +14 1020.4 989.9
ЮЗ 2 н/о н/о +14.7 +14.7 100 +14 +14 1020.0 989.5
ЮЗ 2 15 км ясно +15.0 +15.0 100 +15 +15 1020.1 989.6
С 1 н/о н/о +14.3 +14.3 100 +15 +15 1020.0 989.4
ЮЗ 2 н/о н/о +13.9 +13.9 100 +14 +14 1019.7 989.1
Ю 3 500 м 10/10 <50 м
[Frnb]
+14.7 +14.7 100 +14 +14 1019.1 988.6
Ю 2 н/о н/о +14.3 +14.3 100 +14 +14 1019.2 988.6
Ю 2 н/о н/о +14.3 +14.3 100 +14 +14 1019.4 988.8
Ю 3 100 м 10/10 <50 м
[Frnb]
+14.1 +14.1 100 +13 +13 1019.6 989.0 +13.8 0.0 0.5
Ю 2 н/о осадки н/о +14.1 +14.1 100 +14 +14 1020.1 989.5
Ю 3 н/о н/о +14.3 +14.3 100 +13 +13 1020.2 989.6
Ю 3 3000 м дымка {туман} 8/1 50 м
[St Ac As]
+15.1 +15.1 100 +14 +16 1020.2 989.7 0.0
Ю 3 н/о н/о +18.8 +16.1 84 +20 +20 1020.0 989.9
Ю 3 н/о н/о +20.0 +15.1 73 +23 +23 комфорт 1019.8 989.8
З 3 40 км {туман} 6/6 300 м
[Sc Ci fib]
+20.9 +14.3 66 +24 +28 комфорт 1019.3 989.4
ЮЗ 4 н/о н/о +21.2 +15.8 71 +24 +24 комфорт 1019.1 989.3
З 4 н/о н/о +19.7 +15.8 78 +22 +22 комфорт 1019.0 989.0
З 6 30 км 8/1 1000 м
[Cu med, cong Ac As]
+19.6 +15.3 76 +21 +23 комфорт 1018.8 988.8
З 5 н/о н/о +19.8 +15.2 75 +22 +22 комфорт 1018.7 988.7
З 5 н/о н/о +19.0 +15.3 79 +20 +20 1018.7 988.7
З 4 30 км 4/4 600 м
[Sc Ac trans]
+17.8 +16.5 92 +18 +18 1018.8 988.6 +21.5
С 2 н/о н/о +16.5 +16.5 100 +17 +17 1019.0 988.7
З 1 н/о н/о +15.6 +15.6 100 +16 +16 1019.3 988.9
СЗ 2 30 км 1/1 300 м
[St]
+14.8 +14.8 100 +14 +14 1019.6 989.1
СЗ 1 н/о н/о +14.5 +14.5 100 +15 +15 1019.5 989.0
С 1 н/о н/о +14.4 +14.4 100 +15 +15 1019.2 988.7
штиль 0 4500 м дымка {туман} 9/9 <50 м
[St]
+13.7 +13.7 100 +13 +13 1018.8 988.2
З 1 н/о н/о +13.9 +13.9 100 +14 +14 1018.4 987.8
З 1 н/о н/о +13.9 +13.9 100 +14 +14 1017.9 987.3
ЮЗ 2 н/о н/о +13.8 +13.8 100 +13 +13 1017.4 986.8
ЮЗ 3 н/о н/о +13.6 +13.6 100 +12 +12 1017.3 986.7
ЮЗ 3 н/о н/о +13.4 +13.4 100 +12 +12 1017.2 986.6
Ю 3 н/о ?/? +12.9 +12.9 100 +11 +11 1017.3 986.6 +12.9
ЮЗ 1 н/о в посл. час осадки н/о +12.9 +12.9 100 +13 +13 1017.4 986.7
Ю 3 н/о в посл. час осадки н/о +13.2 +13.2 100 +12 +12 1017.4 986.8
Ю 2 200 м туман ?/? +14.0 +14.0 100 +13 +13 1017.4 986.9 0.0
Ю 3 н/о н/о +15.8 +15.8 100 +15 +15 1017.1 986.8
ЮВ 3 н/о н/о +19.6 +13.9 70 +22 +22 комфорт 1016.3 986.4
Ю 3 30 км {туман} 3/3 1000 м
[Sc Ac und Cc]
+21.2 +13.6 62 +24 +30 комфорт 1015.6 985.8
ЮЗ 5 н/о н/о +20.5 +14.7 69 +23 +23 комфорт 1015.3 985.5
ЮЗ 2 н/о осадки н/о +19.6 +16.8 84 +22 +22 комфорт 1014.6 984.8
Ю 4 30 км 9/3 600 м
[Frnb Ac As Cs]
+19.9 +16.4 80 +23 +25 комфорт 1014.1 984.3 0.0
Ю 3 н/о н/о +20.3 +16.5 79 +24 +24 комфорт 1013.3 983.6
Ю 4 н/о н/о +19.6 +16.8 84 +22 +22 комфорт 1013.3 983.5
Ю 4 20 км 10/4 600 м
[Frnb Ac As Cs]
+18.7 +17.9 95 +20 +20 1013.0 983.1 +22.3
ЮЗ 3 н/о осадки н/о +17.4 +17.4 100 +17 +17 1013.2 983.2
Ю 4 н/о в посл. час осадки н/о +17.1 +17.1 100 +17 +17 1013.4 983.3
Ю 5 800 м слаб. дождь {туман} ?/? +16.9 +16.9 100 +16 +16 1013.4 983.3 2
Ю 5 н/о осадки н/о +16.8 +16.8 100 +16 +16 1012.7 982.6
Ю 6 н/о осадки н/о +17.0 +17.0 100 +16 +16 1011.9 981.9
ЮЗ 5 3000 м дождь {туман} 10/9 <50 м
[Frnb Ac As]
+17.4 +17.4 100 +17 +17 1011.9 981.9 31
ЮЗ 2 н/о в посл. час осадки н/о +17.4 +17.4 100 +18 +18 1012.0 982.0
З 2 н/о в посл. час осадки н/о +17.1 +17.1 100 +18 +18 1011.9 981.9
З 2 12 км 10/8 <50 м
[Frnb Ac As]
+16.8 +16.8 100 +17 +17 1011.6 981.6 0.2
ЮЗ 2 н/о н/о +16.6 +16.6 100 +17 +17 1011.5 981.4
ЮЗ 2 н/о н/о +16.7 +16.7 100 +17 +17 1011.4 981.4
ЮЗ 2 12 км 10/9 <50 м
[Frnb Ac As]
+16.8 +16.8 100 +17 +17 1011.5 981.5 +16.5 33.3
З 1 н/о осадки н/о +16.7 +16.7 100 +17 +17 1012.2 982.1
ЮЗ 2 н/о в посл. час осадки н/о +17.1 +17.1 100 +18 +18 1012.6 982.6
ЮЗ 2 8000 м 10/10 50 м
[Cu Sc]
+17.3 +17.3 100 +18 +18 1012.9 982.9 0.4
ЮЗ 4 н/о осадки н/о +17.2 +17.2 100 +17 +17 1013.4 983.4
З 3 н/о осадки н/о +17.1 +17.1 100 +17 +17 1014.0 983.9
Ю 3 12 км 10/10 200 м
[Sc]
+17.7 +17.7 100 +18 +18 1014.0 984.0 1
З 4 н/о н/о +17.9 +16.7 93 +18 +18 1014.0 984.0
ЮЗ 5 н/о н/о +18.9 +17.0 89 +20 +20 1013.9 984.0
ЮЗ 5 20 км 9/9 300 м
[Cu Sc]
+18.2 +16.1 88 +18 +19 1013.8 983.8
З 5 н/о н/о +18.1 +14.4 79 +18 +18 1014.0 984.0
З 4 н/о н/о +17.8 +14.5 81 +18 +18 1014.3 984.3
ЮЗ 4 20 км 9/6 300 м
[Cu Sc Ci sp]
+16.9 +15.8 93 +16 +16 1014.5 984.4 +19.2
ЮЗ 4 н/о н/о +16.2 +15.3 94 +16 +16 1014.9 984.7
ЮЗ 2 н/о н/о +15.5 +15.3 99 +16 +16 1015.6 985.3
ЮЗ 2 12 км н/о +15.5 +15.5 100 +16 +16 1015.8 985.5
З 4 н/о н/о +15.4 +15.4 100 +14 +14 1016.1 985.8
Ю 2 н/о в посл. час осадки н/о +14.7 +14.7 100 +15 +15 1016.5 986.1
ЮЗ 2 н/о н/о +14.8 +14.8 100 +14 +14 1016.6 986.2 0.0
ЮЗ 2 н/о н/о +14.6 +14.6 100 +14 +14 1016.4 986.0
Ю 2 н/о н/о +14.4 +14.4 100 +14 +14 1016.6 986.1
Ю 2 н/о н/о +14.4 +14.4 100 +14 +14 1016.0 985.6
Ю 1 н/о в посл. час осадки н/о +14.2 +14.2 100 +14 +14 1015.9 985.4
З 2 н/о в посл. час осадки н/о +13.7 +13.7 100 +13 +13 1015.9 985.4
ЮЗ 1 н/о в посл. час осадки н/о +14.0 +14.0 100 +14 +14 1016.0 985.5 +13.6 1 2.9
Ю 2 н/о н/о +13.8 +13.8 100 +13 +13 1016.2 985.7
Ю 2 н/о в посл. час осадки н/о +14.2 +14.2 100 +14 +14 1016.9 986.4
Ю 2 15 км туман на расстоянии 6/6 200 м
[Sc]
+15.5 +15.5 100 +16 +17 1017.4 987.0 0.0
ЮЗ 5 н/о н/о +16.5 +12.3 76 +16 +16 1017.8 987.5
З 4 н/о н/о +16.4 +12.3 77 +16 +16 1018.1 987.8
З 5 8000 м дождь 10/10 300 м
[Cu Sc]
+14.6 +14.4 99 +13 +13 1018.8 988.3 0.0
ЮЗ 4 н/о в посл. час осадки н/о +17.7 +13.3 75 +17 +17 1018.4 988.2
З 4 н/о осадки н/о +15.0 +14.6 97 +14 +14 1018.9 988.4
З 3 30 км слаб. дождь 9/9 300 м
[Cu Sc]
+16.5 +14.0 85 +16 +17 1018.7 988.4 0.4
З 3 н/о н/о +16.8 +13.1 79 +17 +17 1018.6 988.3
ЮЗ 3 н/о н/о +14.9 +14.3 96 +14 +14 1019.2 988.7
СЗ 5 35 км слаб. дождь 9/9 300 м
[Cu Sc]
+15.5 +14.0 91 +14 +14 1019.6 989.2 +18.4
СЗ 3 н/о н/о +15.3 +12.2 82 +15 +15 1020.1 989.6
СЗ 4 н/о н/о +14.3 +12.0 86 +13 +13 1021.2 990.6
СЗ 3 30 км слаб. дождь 9/9 600 м
[Cu Sc]
+14.2 +11.7 85 +13 +13 1021.9 991.2
СЗ 3 н/о н/о +13.7 +11.6 87 +12 +12 1022.2 991.5
С 4 н/о н/о +13.0 +11.4 90 +11 +11 1022.8 992.0
СЗ 3 35 км н/о +12.4 +10.3 87 +11 +11 1023.3 992.4
СЗ 3 н/о н/о +11.7 +10.3 91 +10 +10 1023.8 992.8
СЗ 3 н/о н/о +11.7 +9.6 87 +10 +10 1023.9 992.9
СЗ 3 30 км 10/10 1500 м
[Cu Sc]
+12.3 +9.9 85 +11 +11 1024.0 993.0
СЗ 4 н/о н/о +12.4 +9.6 83 +11 +11 1024.7 993.7
Местоположение метеостанции Виго (Испания): широта 42.23 долгота -8.63 высота над уровнем моря 255 м.
В архиве по умолчанию представлена погода в Виго за последнюю неделю. Архивные данные за месяц целиком и за предыдущие месяцы, начиная с января 2011 года, Вы можете получить, выбрав интересующий диапазон дат из раскрывающегося списка и нажав кнопку "Найти!".
*Определитесь, кто Вы:
Внимание! Время в таблицах - всемирное. Для получения местного времени необходимо прибавить поправку, которая равна 1 ч.
Смотрите также архив погоды в соседних городах и на ближайших метеорологических станциях:
Партнеры нашего сайта:      
Пояснения к столбцам:
  • Ветер - указаны скорость ветра в м/с - средняя за 10 мин, порывы в срок и между сроками (в фигурных скобках) и направление, откуда дует ветер: С - северный,
  • СВ - северо-восточный, В - восточный, ЮВ - юго-восточный, Ю - южный, ЮЗ - юго-западный, З - западный, СЗ - северо-западный.
  • Видимость - горизонтальная дальность видимости в метрах или километрах. При видимости от 1 до 10 км при отсутствии осадков обычно наблюдается дымка, при ухудшении видимости до 1 км и менее - туман. В сухую погоду видимость может ухудшаться дымом, пылью или мглою.
  • Явления - указаны атмосферные явления, наблюдавшиеся в срок или в последний час перед сроком; фигурными скобками обозначены явления, наблюдавшиеся между сроками (за 1-3 часа до срока); квадратными скобками обозначены град или гололедные отложения с указанием их диаметра в мм.
  • Облачность - указаны через наклонную черту общая и нижняя облачность в баллах и высота нижней границы облаков в метрах; квадратными скобками обозначены формы облаков: Ci - перистые, Cs - перисто-слоистые, Cc - перисто-кучевые, Ac - высококучевые, As - высокослоистые, Sc - слоисто-кучевые, Ns - слоисто-дождевые, Cu - кучевые, Cb - кучево-дождевые. Подробнее классификацию облаков см. в Атласе облаков (PDF).
  • T - Температура воздуха - температура, измеренная на высоте 2 м над землей.
  • Td - Температура точки росы - температура, при понижении до которой содержащийся в воздухе водяной пар достигнет насыщения.
  • f - Относительная влажность воздуха - влажноcть воздуха, измеренная на высоте 2 м над землей.
  • Te - Эффективная температура - температура, которую ощущает одетый по сезону человек в тени. Характеристика душности погоды. При расчете учитывается влияние влажности воздуха и скорости ветра на теплоощущения человека.
  • Tes - Эффективная температура на солнце - температура, которую ощущает человек, с поправкой на солнечный нагрев. Характеристика знойности погоды. Зависит от высоты солнца над горизонтом, облачности и скорости ветра. Ночью, в пасмурную погоду, а также при ветре 12 м/с и более поправка равна нулю.
  • P - Атмосферное давление - приведенное к уровню моря атмосферное давление.
  • Po - Атмосферное давление - измеренное на уровне метеостанции атмосферное давление.
  • Tmin - Минимальная температура - минимум температуры воздуха на высоте 2 м над землей.
  • Tmax - Максимальная температура - максимум температуры воздуха на высоте 2 м над землей.
  • R - Количество осадков - Количество выпавших осадков за период времени, мм. При наведении курсора мыши на число - период времени, за который выпало указанное количество осадков.
  • R24 - Количество осадков - Количество выпавших осадков за 24 часа, мм.
  • S - Снежный покров - Высота снежного покрова, см. При наведении курсора мыши на число - состояние снежного покрова и степень покрытия местности в баллах.